Weather reports worldwide

Advertisment
Newton Rigg, United Kingdom (99152): temperature & dewpoint: 10.12.2017 05:00:00 - 16.12.2017 05:00:00 (GMT)Newton Rigg, United Kingdom (99152): temperature -20cm & temperature -100cm: 10.12.2017 05:00:00 - 16.12.2017 05:00:00 (GMT)Newton Rigg, United Kingdom (99152): precipitation: 10.12.2017 05:00:00 - 16.12.2017 05:00:00 (GMT)
Date & Time tt [°C] td [°C] tt -20cm [°C] tt -100cm [°C] rr [mm]
16.12.2017 05:00:00 - - - - -
16.12.2017 04:00:00 -2,2 -3,1 - - 0,0
16.12.2017 03:00:00 -0,6 -2,0 - - 0,0
16.12.2017 02:00:00 -1,9 -3,0 - - 0,0
16.12.2017 01:00:00 -0,7 -2,7 - - 0,0
16.12.2017 00:00:00 0,3 -1,7 - - 0,0
15.12.2017 23:00:00 0,5 -1,3 - - 0,0
15.12.2017 22:00:00 -0,8 -1,6 - - 0,0
15.12.2017 21:00:00 -1,3 -2,6 - - 0,0
15.12.2017 20:00:00 0,2 -2,2 - - 0,0
15.12.2017 19:00:00 0,5 -2,0 - - 0,0
15.12.2017 18:00:00 - - - - 0,0
15.12.2017 17:00:00 0,8 -1,4 - - 0,0
15.12.2017 16:00:00 1,1 -1,1 - - 0,0
15.12.2017 15:00:00 2,7 -0,9 - - 0,0
15.12.2017 14:00:00 3,6 0,8 - - 0,0
15.12.2017 13:00:00 3,8 1,1 - - 0,0
15.12.2017 12:00:00 3,1 1,2 - - 0,0
15.12.2017 11:00:00 2,8 1,4 - - 0,0
15.12.2017 10:00:00 1,7 1,0 - - 0,2
15.12.2017 09:00:00 1,5 0,4 3,7 6,7 0,0
15.12.2017 08:00:00 0,8 -0,2 - - 0,0
15.12.2017 07:00:00 0,8 -0,5 - - 0,0
15.12.2017 06:00:00 0,4 -0,9 - - 0,0
15.12.2017 05:00:00 0,3 -0,7 - - 0,0
15.12.2017 04:00:00 -0,1 -0,7 - - 0,0
15.12.2017 03:00:00 -1,2 -1,5 - - 0,0
15.12.2017 02:00:00 -0,9 -1,1 - - 0,0
15.12.2017 01:00:00 -0,5 -0,7 - - 0,0
15.12.2017 00:00:00 -0,3 -0,5 - - 0,0
14.12.2017 23:00:00 0,5 0,4 - - 0,0
14.12.2017 22:00:00 0,8 0,6 - - 0,2
14.12.2017 21:00:00 0,7 0,3 - - 0,2
14.12.2017 20:00:00 0,9 0,3 - - 0,2
14.12.2017 19:00:00 0,3 -0,1 - - 0,0
14.12.2017 18:00:00 0,8 -0,2 - - 0,0
14.12.2017 17:00:00 2,0 1,0 - - 0,4
14.12.2017 16:00:00 2,6 1,6 - - 0,0
14.12.2017 15:00:00 1,1 0,6 - - 1,2
14.12.2017 14:00:00 1,7 0,7 - - 2,0
14.12.2017 13:00:00 3,3 1,7 - - 0,8
14.12.2017 12:00:00 3,4 1,3 - - 0,8
14.12.2017 11:00:00 2,7 1,2 - - 0,8
14.12.2017 10:00:00 2,6 0,7 - - 0,6
14.12.2017 09:00:00 2,9 0,8 3,9 6,7 0,4
14.12.2017 08:00:00 2,5 0,5 - - 0,2
14.12.2017 07:00:00 2,0 1,1 - - 1,6
14.12.2017 06:00:00 1,0 0,2 - - 0,0
14.12.2017 05:00:00 0,4 -1,1 - - 0,0
14.12.2017 04:00:00 1,9 -1,5 - - 0,0
14.12.2017 03:00:00 0,9 -1,1 - - 0,0
14.12.2017 02:00:00 1,6 -0,7 - - 0,0
14.12.2017 01:00:00 1,4 -0,6 - - 0,0
14.12.2017 00:00:00 1,6 -0,2 - - 0,2
13.12.2017 23:00:00 1,5 -0,9 - - 0,0
13.12.2017 22:00:00 1,2 -0,8 - - 0,0
13.12.2017 21:00:00 1,5 -0,4 - - 0,0
13.12.2017 20:00:00 1,9 0,0 - - 0,0
13.12.2017 19:00:00 1,4 -0,4 - - 0,2
13.12.2017 18:00:00 1,9 -0,2 - - 0,0
13.12.2017 17:00:00 1,3 -0,1 - - 0,4
13.12.2017 16:00:00 2,1 -0,3 - - 0,0
13.12.2017 15:00:00 3,0 -0,2 - - 0,0
13.12.2017 14:00:00 4,0 0,8 - - 0,0
13.12.2017 13:00:00 3,7 1,6 - - 0,2
13.12.2017 12:00:00 2,0 0,9 - - 1,8
13.12.2017 11:00:00 4,1 2,5 - - 1,6
13.12.2017 10:00:00 5,4 3,7 - - 0,8
13.12.2017 09:00:00 4,3 3,1 3,7 7,0 1,0
13.12.2017 08:00:00 4,2 3,0 - - 1,0
13.12.2017 07:00:00 4,1 2,1 - - 0,2
13.12.2017 06:00:00 4,6 2,2 - - 0,0
13.12.2017 05:00:00 4,1 1,6 - - 0,0
13.12.2017 04:00:00 4,7 2,4 - - 0,0
13.12.2017 03:00:00 4,0 2,0 - - 0,0
13.12.2017 02:00:00 4,1 2,7 - - 0,0
13.12.2017 01:00:00 4,0 2,5 - - 0,0
13.12.2017 00:00:00 4,2 2,5 - - 0,0
12.12.2017 23:00:00 2,9 2,4 - - 0,2
12.12.2017 22:00:00 2,2 1,5 - - 0,2
12.12.2017 21:00:00 2,0 1,0 - - 0,6
12.12.2017 20:00:00 1,9 0,9 - - 0,4
12.12.2017 19:00:00 1,7 0,8 - - 0,2
12.12.2017 18:00:00 1,8 1,2 - - 0,2
12.12.2017 17:00:00 1,2 0,6 - - 0,2
12.12.2017 16:00:00 0,7 0,1 - - 0,0
12.12.2017 15:00:00 0,8 0,0 - - 0,0
12.12.2017 14:00:00 0,9 -0,3 - - 0,0
12.12.2017 13:00:00 0,2 -1,0 - - 0,0
12.12.2017 12:00:00 -1,3 -2,2 - - 0,0
12.12.2017 11:00:00 -1,5 -2,2 - - 0,0
12.12.2017 10:00:00 -3,5 -4,2 - - 0,0
12.12.2017 09:00:00 -4,7 -5,1 3,9 7,4 0,0
12.12.2017 08:00:00 -4,6 -4,9 - - 0,0
12.12.2017 07:00:00 -4,2 -4,5 - - 0,0
12.12.2017 06:00:00 -4,2 -4,6 - - 0,0
12.12.2017 05:00:00 -3,3 -3,8 - - 0,0
12.12.2017 04:00:00 -2,4 -2,7 - - 0,0
12.12.2017 03:00:00 -2,6 -2,8 - - 0,0
12.12.2017 02:00:00 -3,7 -3,9 - - 0,0
12.12.2017 01:00:00 -6,2 -7,2 - - 0,0
12.12.2017 00:00:00 -5,1 -5,6 - - 0,0
11.12.2017 23:00:00 -4,8 -5,2 - - 0,0
11.12.2017 22:00:00 -4,1 -4,3 - - 0,0
11.12.2017 21:00:00 -4,9 -5,5 - - 0,0
11.12.2017 20:00:00 -4,2 -4,7 - - 0,0
11.12.2017 19:00:00 -3,2 -3,8 - - 0,0
11.12.2017 18:00:00 -2,8 -3,8 - - 0,0
11.12.2017 17:00:00 -2,5 -3,6 - - 0,0
11.12.2017 16:00:00 -1,7 -2,9 - - 0,0
11.12.2017 15:00:00 -1,1 -3,1 - - 0,0
11.12.2017 14:00:00 0,2 -1,8 - - 0,0
11.12.2017 13:00:00 -0,8 -3,0 - - 0,0
11.12.2017 12:00:00 -2,5 -4,0 - - 0,2
11.12.2017 11:00:00 -4,0 -5,5 - - 0,0
11.12.2017 10:00:00 -5,2 -5,9 - - 0,0
11.12.2017 09:00:00 -6,9 -7,6 4,7 7,7 0,0
11.12.2017 08:00:00 -9,8 -10,9 - - 0,0
11.12.2017 07:00:00 -9,3 -10,5 - - 0,0
11.12.2017 06:00:00 -8,9 -10,1 - - 0,0
11.12.2017 05:00:00 -7,9 -8,6 - - 0,0
11.12.2017 04:00:00 -8,0 -8,7 - - 0,0
11.12.2017 03:00:00 -7,0 -7,6 - - 0,0
11.12.2017 02:00:00 -8,2 -9,2 - - 0,0
11.12.2017 01:00:00 -8,2 -9,2 - - 0,0
11.12.2017 00:00:00 -7,9 -8,8 - - 0,0
10.12.2017 23:00:00 -7,6 -8,3 - - 0,0
10.12.2017 22:00:00 -7,8 -8,8 - - 0,0
10.12.2017 21:00:00 -6,5 -7,2 - - 0,0
10.12.2017 20:00:00 -6,4 -7,2 - - 0,0
10.12.2017 19:00:00 -6,0 -6,6 - - 0,0
10.12.2017 18:00:00 -5,8 -6,5 - - 0,0
10.12.2017 17:00:00 -4,6 -5,7 - - 0,0
10.12.2017 16:00:00 -3,6 -5,2 - - 0,0
10.12.2017 15:00:00 -1,9 -3,8 - - 0,0
10.12.2017 14:00:00 -0,7 -3,6 - - 0,0
10.12.2017 13:00:00 0,0 -4,3 - - 0,0
10.12.2017 12:00:00 -0,5 -3,6 - - 0,0
10.12.2017 11:00:00 -1,1 -4,1 - - 0,0
10.12.2017 10:00:00 -2,4 -2,9 - - 0,0
10.12.2017 09:00:00 -2,3 -2,7 5,2 7,7 0,0
10.12.2017 08:00:00 -2,1 -2,6 - - 0,0
10.12.2017 07:00:00 -1,6 -2,0 - - 0,0
10.12.2017 06:00:00 -1,4 -2,0 - - 0,0
10.12.2017 05:00:00 -1,0 -1,4 - - 0,0

tt = temperature
td = dewpoint
tt -20cm = temperature -20cm
tt -100cm = temperature -100cm
rr = precipitation

Next stations